When you browse on this site, cookies collect data to enhance your experience and personalize the content and advertising you see.
Visit our Privacy Policy to learn more. By continuing to use the site, you agree to this use of cookies and data.
  • In Österreich
  • Länderverzeichnis
  • Für 7 Tage
  • Wassertemperatur
  • Satellitenkarten
  • Wetterkarte
  • News
  • Widgets
  • user-avatar
    Anmelden

    Stündliche Wetter Troy

    Heute, 23 April, Dienstag

    Zeit Temperatur Niederschläge Wind Luftdruck Luftfeuchtigkeit
    00:00 +13°C° 0 mm 4 m/S 740 mmHg 72%
    01:00 +14°C° 0 mm 4 m/S 739 mmHg 71%
    02:00 +14°C° 0 mm 4 m/S 739 mmHg 71%
    03:00 +14°C° 0 mm 5 m/S 738 mmHg 71%
    04:00 +14°C° 0.7 mm 5 m/S 737 mmHg 75%
    05:00 +14°C° 0.7 mm 6 m/S 737 mmHg 80%
    06:00 +15°C° 0.7 mm 6 m/S 736 mmHg 84%
    07:00 +15°C° 0.1 mm 6 m/S 736 mmHg 82%
    08:00 +16°C° 0.1 mm 7 m/S 736 mmHg 81%
    09:00 +17°C° 0.1 mm 7 m/S 736 mmHg 79%
    10:00 +17°C° 0 mm 7 m/S 737 mmHg 76%
    11:00 +16°C° 0 mm 7 m/S 737 mmHg 72%
    12:00 +15°C° 0 mm 7 m/S 737 mmHg 68%
    13:00 +15°C° 0 mm 7 m/S 738 mmHg 66%
    14:00 +15°C° 0 mm 6 m/S 738 mmHg 64%
    15:00 +15°C° 0 mm 6 m/S 738 mmHg 62%
    16:00 +14°C° 0 mm 6 m/S 739 mmHg 62%
    17:00 +14°C° 0 mm 5 m/S 739 mmHg 62%
    18:00 +13°C° 0 mm 4 m/S 739 mmHg 62%
    19:00 +12°C° 0 mm 4 m/S 740 mmHg 62%
    20:00 +11°C° 0 mm 4 m/S 740 mmHg 62%
    21:00 +10°C° 0 mm 4 m/S 741 mmHg 63%
    22:00 +8°C° 0 mm 4 m/S 741 mmHg 65%
    23:00 +8°C° 0 mm 3 m/S 741 mmHg 68%

    Morgen, 24 April, Mittwoch

    Zeit Temperatur Niederschläge Wind Luftdruck Luftfeuchtigkeit
    00:00 +7°C° 0 mm 3 m/S 741 mmHg 70%
    01:00 +7°C° 0 mm 3 m/S 741 mmHg 71%
    02:00 +5°C° 0 mm 3 m/S 741 mmHg 72%
    03:00 +6°C° 0 mm 2 m/S 741 mmHg 73%
    04:00 +6°C° 0 mm 2 m/S 742 mmHg 72%
    05:00 +6°C° 0 mm 2 m/S 742 mmHg 71%
    06:00 +6°C° 0 mm 2 m/S 742 mmHg 70%
    07:00 +8°C° 0 mm 2 m/S 742 mmHg 62%
    08:00 +10°C° 0 mm 2 m/S 742 mmHg 53%
    09:00 +13°C° 0 mm 2 m/S 743 mmHg 44%
    10:00 +14°C° 0 mm 2 m/S 742 mmHg 40%
    11:00 +15°C° 0 mm 2 m/S 742 mmHg 35%
    12:00 +17°C° 0 mm 2 m/S 742 mmHg 30%
    13:00 +17°C° 0 mm 2 m/S 741 mmHg 30%
    14:00 +18°C° 0 mm 2 m/S 741 mmHg 30%
    15:00 +18°C° 0 mm 2 m/S 741 mmHg 29%
    16:00 +17°C° 0 mm 2 m/S 740 mmHg 34%
    17:00 +16°C° 0 mm 1 m/S 740 mmHg 38%
    18:00 +16°C° 0 mm 1 m/S 740 mmHg 43%
    19:00 +15°C° 0 mm 1 m/S 740 mmHg 45%
    20:00 +14°C° 0 mm 1 m/S 740 mmHg 48%
    21:00 +13°C° 0 mm 2 m/S 740 mmHg 51%
    22:00 +12°C° 0 mm 2 m/S 740 mmHg 52%
    23:00 +12°C° 0 mm 2 m/S 740 mmHg 54%

    übermorgen, 25 April, Donnerstag

    Zeit Temperatur Niederschläge Wind Luftdruck Luftfeuchtigkeit
    00:00 +10°C° 0 mm 2 m/S 740 mmHg 55%
    01:00 +10°C° 0 mm 2 m/S 740 mmHg 57%
    02:00 +9°C° 0 mm 2 m/S 739 mmHg 60%
    03:00 +9°C° 0 mm 2 m/S 739 mmHg 62%
    04:00 +9°C° 0 mm 2 m/S 739 mmHg 62%
    05:00 +9°C° 0 mm 2 m/S 739 mmHg 62%
    06:00 +10°C° 0 mm 2 m/S 739 mmHg 62%
    07:00 +13°C° 0 mm 2 m/S 739 mmHg 56%
    08:00 +14°C° 0 mm 3 m/S 739 mmHg 50%
    09:00 +17°C° 0 mm 3 m/S 739 mmHg 44%
    10:00 +18°C° 0 mm 3 m/S 738 mmHg 41%
    11:00 +19°C° 0 mm 3 m/S 738 mmHg 38%
    12:00 +20°C° 0 mm 4 m/S 737 mmHg 36%
    13:00 +20°C° 0 mm 3 m/S 736 mmHg 38%
    14:00 +20°C° 0 mm 3 m/S 736 mmHg 40%
    15:00 +21°C° 0 mm 3 m/S 735 mmHg 42%
    16:00 +20°C° 0 mm 3 m/S 735 mmHg 47%
    17:00 +19°C° 0 mm 2 m/S 735 mmHg 52%
    18:00 +18°C° 0 mm 2 m/S 734 mmHg 57%
    19:00 +17°C° 0 mm 2 m/S 734 mmHg 60%
    20:00 +16°C° 0 mm 2 m/S 735 mmHg 63%
    21:00 +15°C° 0 mm 2 m/S 735 mmHg 67%
    22:00 +13°C° 0.5 mm 4 m/S 735 mmHg 72%
    23:00 +10°C° 0.5 mm 5 m/S 735 mmHg 77%

    26 April, Freitag

    Zeit Temperatur Niederschläge Wind Luftdruck Luftfeuchtigkeit
    00:00 +9°C° 0.5 mm 7 m/S 735 mmHg 82%
    01:00 +8°C° 0.8 mm 6 m/S 735 mmHg 80%
    02:00 +8°C° 0.8 mm 5 m/S 735 mmHg 78%
    03:00 +8°C° 0.8 mm 4 m/S 735 mmHg 76%
    04:00 +8°C° 0 mm 5 m/S 736 mmHg 75%
    05:00 +8°C° 0 mm 5 m/S 737 mmHg 74%
    06:00 +8°C° 0 mm 5 m/S 737 mmHg 73%
    07:00 +10°C° 0 mm 6 m/S 738 mmHg 63%
    08:00 +11°C° 0 mm 6 m/S 738 mmHg 52%
    09:00 +14°C° 0 mm 6 m/S 738 mmHg 42%
    10:00 +14°C° 0 mm 6 m/S 738 mmHg 37%
    11:00 +15°C° 0 mm 7 m/S 738 mmHg 32%
    12:00 +16°C° 0 mm 8 m/S 739 mmHg 27%
    13:00 +15°C° 0 mm 8 m/S 739 mmHg 28%
    14:00 +15°C° 0 mm 8 m/S 739 mmHg 28%
    15:00 +13°C° 0 mm 9 m/S 740 mmHg 28%
    16:00 +12°C° 0 mm 7 m/S 740 mmHg 30%
    17:00 +11°C° 0 mm 6 m/S 741 mmHg 33%
    18:00 +10°C° 0 mm 5 m/S 741 mmHg 36%
    19:00 +9°C° 0 mm 5 m/S 742 mmHg 37%
    20:00 +8°C° 0 mm 4 m/S 742 mmHg 38%
    21:00 +8°C° 0 mm 4 m/S 743 mmHg 39%
    22:00 +8°C° 0 mm 3 m/S 743 mmHg 42%
    23:00 +7°C° 0 mm 3 m/S 743 mmHg 45%

    27 April, Samstag

    Zeit Temperatur Niederschläge Wind Luftdruck Luftfeuchtigkeit
    00:00 +7°C° 0 mm 2 m/S 743 mmHg 48%
    01:00 +6°C° 0 mm 2 m/S 743 mmHg 49%
    02:00 +7°C° 0 mm 1 m/S 743 mmHg 50%
    03:00 +5°C° 0 mm 0 m/S 743 mmHg 51%
    04:00 +6°C° 0 mm 0 m/S 743 mmHg 49%
    05:00 +7°C° 0 mm 1 m/S 744 mmHg 48%
    06:00 +8°C° 0 mm 1 m/S 744 mmHg 46%
    07:00 +8°C° 0 mm 2 m/S 744 mmHg 42%
    08:00 +9°C° 0 mm 3 m/S 743 mmHg 39%
    09:00 +10°C° 0 mm 4 m/S 743 mmHg 35%
    10:00 +9°C° 0.1 mm 5 m/S 742 mmHg 38%
    11:00 +9°C° 0.1 mm 5 m/S 741 mmHg 40%
    12:00 +9°C° 0.1 mm 5 m/S 741 mmHg 43%
    13:00 +9°C° 0.4 mm 5 m/S 740 mmHg 50%
    14:00 +9°C° 0.4 mm 5 m/S 739 mmHg 56%
    15:00 +9°C° 0.4 mm 6 m/S 738 mmHg 63%
    16:00 +9°C° 0.3 mm 6 m/S 737 mmHg 67%
    17:00 +9°C° 0.3 mm 6 m/S 736 mmHg 71%
    18:00 +9°C° 0.3 mm 6 m/S 735 mmHg 74%
    19:00 +10°C° 0.2 mm 6 m/S 734 mmHg 76%
    20:00 +11°C° 0.2 mm 6 m/S 733 mmHg 77%
    21:00 +11°C° 0.2 mm 7 m/S 732 mmHg 78%
    22:00 +12°C° 0.1 mm 7 m/S 732 mmHg 78%
    23:00 +12°C° 0.1 mm 8 m/S 731 mmHg 79%

    28 April, Sonntag

    Zeit Temperatur Niederschläge Wind Luftdruck Luftfeuchtigkeit
    00:00 +12°C° 0.1 mm 8 m/S 731 mmHg 79%
    01:00 +10°C° 0 mm 9 m/S 731 mmHg 78%
    02:00 +7°C° 0 mm 9 m/S 732 mmHg 76%
    03:00 +5°C° 0 mm 9 m/S 733 mmHg 75%
    04:00 +3°C° 0 mm 9 m/S 735 mmHg 74%
    05:00 +4°C° 0 mm 8 m/S 737 mmHg 72%
    06:00 +4°C° 0 mm 8 m/S 738 mmHg 71%
    07:00 +5°C° 0 mm 7 m/S 740 mmHg 66%
    08:00 +7°C° 0 mm 6 m/S 741 mmHg 62%
    09:00 +8°C° 0 mm 6 m/S 742 mmHg 57%
    10:00 +9°C° 0 mm 5 m/S 742 mmHg 55%
    11:00 +11°C° 0 mm 4 m/S 743 mmHg 54%
    12:00 +11°C° 0 mm 4 m/S 743 mmHg 52%
    13:00 +11°C° 0 mm 3 m/S 743 mmHg 51%
    14:00 +12°C° 0 mm 3 m/S 744 mmHg 50%
    15:00 +12°C° 0 mm 3 m/S 744 mmHg 49%
    16:00 +11°C° 0.1 mm 3 m/S 745 mmHg 55%
    17:00 +9°C° 0.1 mm 3 m/S 745 mmHg 60%
    18:00 +7°C° 0.1 mm 4 m/S 745 mmHg 65%
    19:00 +7°C° 0.2 mm 3 m/S 746 mmHg 67%
    20:00 +5°C° 0.2 mm 3 m/S 746 mmHg 69%
    21:00 +4°C° 0.2 mm 3 m/S 746 mmHg 70%
    22:00 +4°C° 0 mm 3 m/S 746 mmHg 71%
    23:00 +4°C° 0 mm 3 m/S 746 mmHg 72%
    Mehr zeigen